{"data":{"norad_id":54216,"epoch":"2026-09-20T00:37:39.425664Z","epoch_age_seconds":55460,"freshness":"FRESH","line1":"1 54216U 22143A   26263.02615076  .00015971  00000+0  19476-3 0  9998","line2":"2 54216  41.4678 106.1628 0002596 292.3466  67.7098 15.60120079308074","mean_motion":15.60120079,"eccentricity":0.0002596,"inclination_deg":41.4678,"raan_deg":106.1628,"arg_perigee_deg":292.3466,"mean_anomaly_deg":67.7098,"bstar":0.00019476,"rev_number":30807,"period_min":92.300587588297,"perigee_km":385.55360079716,"apogee_km":389.06622083326,"semimajor_km":6765.4469108152,"source":"CELESTRAK","updated_at":"2026-09-20T09:00:28.693901Z"}}